Home   Weather   Skegness   Past weeks
Flag for United Kingdom

Past Weather in Skegness, England, United Kingdom — Yesterday and Last 2 Weeks

Now
49 °F

Cool.


Feels Like: 44 °F
Forecast: 53 / 47 °F
Wind: 16 mph from Southwest

Location: Wainfleet

Current Time: Dec 6, 2019 at 8:09:24 am

Latest Report: Dec 6, 2019 at 7:00 am


Visibility: 3 mi

Pressure: 29.59 "Hg

Humidity: 99%

Dew Point: 49 °F

Location of SkegnessLocation

Past Weather in Skegness — Graph

°F

Skegness Temperature Yesterday

Maximum temperature yesterday: 47 °F (at 11:00 pm)
Minimum temperature yesterday: 33 °F (at 7:00 am)
Average temperature yesterday: 40 °F

High & Low Weather Summary for the Past Weeks

 TemperatureHumidityPressure
High53 °F (Nov 26, 3:00 pm)100% (Nov 24, 8:00 am)30.43 "Hg (Nov 24, 8:00 am)
Low29 °F (Nov 30, 4:00 am)77% (Nov 21, 11:00 am)28.94 "Hg (Nov 27, 1:00 pm)
Average43 °F95%29.78 "Hg
* Reported Nov 21 7:00 am — Dec 6 7:00 am, Skegness. Weather by CustomWeather, © 2019

Note: Actual official high and low records may vary slightly from our data, if they occured in-between our weather recording intervals... More about our weather records

Skegness Weather History for the Previous 24 Hours

Scroll right to see more
 ConditionsComfort  
Time TempWeatherWind HumidityBarometerVisibility
7:00 am
Fri, Dec 6
49 °FCool.16 mph99%29.59 "Hg3 mi
6:00 am49 °FCool.14 mph97%29.61 "Hg28 mi
5:00 am48 °FCool.15 mph98%29.64 "Hg22 mi
4:00 am48 °FCool.16 mph97%29.65 "Hg28 mi
3:00 am49 °FCool.13 mph95%29.67 "Hg37 mi
2:00 am49 °FCool.17 mph94%29.69 "Hg31 mi
1:00 am49 °FCool.18 mph93%29.70 "Hg37 mi
11:00 pm
Thu, Dec 5
47 °FCool.25 mph92%29.71 "Hg25 mi
10:00 pm46 °FCool.26 mph91%29.72 "Hg28 mi
9:00 pm46 °FCool.29 mph90%29.74 "Hg22 mi
8:00 pm46 °FCool.25 mph92%29.76 "Hg22 mi
7:00 pm45 °FQuite cool.26 mph93%29.76 "Hg19 mi
6:00 pm45 °FQuite cool.28 mph92%29.79 "Hg19 mi
5:00 pm44 °FQuite cool.25 mph94%29.82 "Hg12 mi
4:00 pm44 °FQuite cool.21 mph94%29.86 "Hg9 mi
3:00 pm43 °FQuite cool.22 mph94%29.88 "Hg8 mi
2:00 pm42 °FQuite cool.22 mph93%29.92 "Hg10 mi
1:00 pm41 °FQuite cool.22 mph95%29.97 "Hg9 mi
12:00 pm42 °FQuite cool.17 mph94%30.01 "Hg7 mi
11:00 am40 °FQuite cool.17 mph96%30.03 "Hg4 mi
10:00 am37 °FChilly.16 mph99%30.04 "Hg2 mi
9:00 am36 °FChilly.16 mph99%30.04 "Hg2 mi
8:00 am34 °FChilly.13 mph100%30.06 "Hg1 mi
Weather by CustomWeather, © 2019

See weather overview

Advertising